OTTER BROOK LAKE : From 01/08/2022 22:00 to 01/23/2022 03:00

Date STAGE [FT] FLOW [CFS] LAKE ELEVATION [FT] PRECIPITATION INCREMENT [IN] AIR TEMPERATURE [DEGF]
01/22/2022 16:00 -- -- -- 0.00 --
01/22/2022 15:00 -- -- 24.28 0.00 12.8
01/22/2022 14:00 -- -- 24.28 0.00 14.9
01/22/2022 13:00 -- -- 24.27 0.00 16.5
01/22/2022 12:00 -- -- 24.27 0.00 18.3
01/22/2022 11:00 -- -- 24.27 0.00 21.5
01/22/2022 10:00 -- -- 24.27 0.00 24.8
01/22/2022 09:00 -- -- 24.27 0.00 25.2
01/22/2022 08:00 -- -- 24.27 0.00 22.4
01/22/2022 07:00 -- -- 24.28 0.00 19.5
01/22/2022 06:00 -- -- 24.28 0.00 12.7
01/22/2022 05:00 -- -- 24.28 0.00 6.3
01/22/2022 04:00 -- -- 24.29 0.00 1.4
01/22/2022 03:00 -- -- 24.30 0.00 1.3
01/22/2022 02:00 -- -- 24.30 0.00 1.2
01/22/2022 01:00 -- -- 24.30 0.00 1.0
01/22/2022 00:00 -- -- 24.30 0.00 0.9
01/21/2022 23:00 -- -- 24.30 0.00 0.8
01/21/2022 22:00 -- -- 24.30 0.00 0.7
01/21/2022 21:00 -- -- 24.30 0.00 0.6
01/21/2022 20:00 -- -- 24.30 0.00 0.4
01/21/2022 19:00 -- -- 24.30 0.00 0.3
01/21/2022 18:00 -- -- 24.29 0.00 0.2
01/21/2022 17:00 -- -- 24.29 0.00 2.1
01/21/2022 16:00 -- -- 24.29 0.00 3.4
01/21/2022 15:00 -- -- 24.28 0.00 3.9
01/21/2022 14:00 -- -- 24.28 0.00 8.5
01/21/2022 13:00 -- -- 24.27 0.00 8.1
01/21/2022 12:00 -- -- 24.27 0.00 12.8
01/21/2022 11:00 -- -- 24.26 0.00 15.6
01/21/2022 10:00 -- -- 24.26 0.00 17.6
01/21/2022 09:00 -- -- 24.26 0.00 18.4
01/21/2022 08:00 -- -- 24.26 0.00 18.3
01/21/2022 07:00 -- -- 24.26 0.00 14.1
01/21/2022 06:00 -- -- 24.27 0.00 14.9
01/21/2022 05:00 -- -- 24.28 0.00 7.1
01/21/2022 04:00 -- -- 24.28 0.00 1.7
01/21/2022 03:00 -- -- 24.29 0.00 0.5
01/21/2022 02:00 -- -- 24.30 0.00 0.4
01/21/2022 01:00 -- -- 24.30 0.00 0.3
01/21/2022 00:00 -- -- 24.30 0.00 0.9
01/20/2022 23:00 -- -- 24.30 0.00 2.7
01/20/2022 22:00 -- -- 24.30 0.00 4.3
01/20/2022 21:00 -- -- 24.30 0.00 6.3
01/20/2022 20:00 -- -- 24.31 0.00 7.8
01/20/2022 19:00 -- -- 24.30 0.00 9.7
01/20/2022 18:00 -- -- 24.30 0.00 11.6
01/20/2022 17:00 -- -- 24.30 0.00 12.9
01/20/2022 16:00 -- -- 24.30 0.00 14.8
01/20/2022 15:00 -- -- 24.29 0.00 17.0
01/20/2022 14:00 -- -- 24.28 0.00 19.9
01/20/2022 13:00 -- -- 24.28 0.00 21.1
01/20/2022 12:00 -- -- 24.27 0.00 22.9
01/20/2022 11:00 -- -- 24.28 0.00 25.6
01/20/2022 10:00 -- -- 24.26 0.00 29.2
01/20/2022 09:00 -- -- 24.27 0.00 30.5
01/20/2022 08:00 -- -- 24.24 0.00 30.7
01/20/2022 07:00 -- -- 24.25 0.00 34.1
01/20/2022 06:00 -- -- 24.24 0.00 31.6
01/20/2022 05:00 -- -- 24.24 0.00 31.7
01/20/2022 04:00 -- -- 24.22 0.00 32.8
01/20/2022 03:00 -- -- 24.22 0.00 34.8
01/20/2022 02:00 6.40 48.3 24.21 0.00 36.4
01/20/2022 01:00 6.40 48.3 24.21 0.00 36.7
01/20/2022 00:00 6.40 48.3 24.20 0.00 32.2
01/19/2022 23:00 6.40 48.3 24.19 0.00 31.8
01/19/2022 22:00 6.40 48.3 24.19 0.00 32.1
01/19/2022 21:00 6.40 48.3 24.18 0.00 31.7
01/19/2022 20:00 6.40 48.3 24.17 0.00 31.7
01/19/2022 19:00 6.40 48.3 24.16 0.00 30.3
01/19/2022 18:00 6.40 48.3 24.15 0.00 29.9
01/19/2022 17:00 6.40 48.3 24.14 0.00 31.0
01/19/2022 16:00 6.39 47.3 24.13 0.00 31.3
01/19/2022 15:00 6.40 48.3 24.12 0.00 31.5
01/19/2022 14:00 6.40 48.3 24.11 0.00 32.8
01/19/2022 13:00 6.39 47.3 24.09 0.00 33.9
01/19/2022 12:00 6.39 47.3 24.09 0.00 37.6
01/19/2022 11:00 6.39 47.3 24.08 0.00 41.1
01/19/2022 10:00 6.39 47.3 24.06 0.00 41.3
01/19/2022 09:00 6.31 39.5 24.05 0.00 41.7
01/19/2022 08:00 6.31 39.5 24.03 0.00 39.4
01/19/2022 07:00 6.30 38.5 24.01 0.00 36.0
01/19/2022 06:00 6.30 38.5 24.00 0.00 35.6
01/19/2022 05:00 6.30 38.5 23.99 0.00 27.4
01/19/2022 04:00 6.31 39.5 23.97 0.00 22.1
01/19/2022 03:00 -- -- 23.94 0.00 11.6
01/19/2022 02:00 6.31 39.5 23.94 0.00 11.9
01/19/2022 01:00 6.31 39.5 23.92 0.00 11.5
01/19/2022 00:00 6.30 38.5 23.90 0.00 8.5
01/18/2022 23:00 6.31 39.5 23.88 0.00 8.0
01/18/2022 22:00 6.30 38.5 23.86 0.00 6.2
01/18/2022 21:00 6.31 39.5 23.84 0.00 5.9
01/18/2022 20:00 6.31 39.5 23.82 0.00 4.4
01/18/2022 19:00 6.31 39.5 23.80 0.00 7.6
01/18/2022 18:00 6.31 39.5 23.78 0.00 7.8
01/18/2022 17:00 6.31 39.5 23.75 0.00 9.6
01/18/2022 16:00 6.31 39.5 23.72 0.00 12.2
01/18/2022 15:00 6.31 39.5 23.70 0.00 15.3
01/18/2022 14:00 6.31 39.5 23.67 0.00 17.7
01/18/2022 13:00 6.30 38.5 23.65 0.00 19.5
01/18/2022 12:00 6.31 39.5 23.63 0.00 21.4
01/18/2022 11:00 6.31 39.5 23.59 0.00 23.1
01/18/2022 10:00 6.30 38.5 23.55 0.00 24.9
01/18/2022 09:00 6.31 39.5 23.55 0.00 25.9
01/18/2022 08:00 6.30 38.5 23.52 0.00 28.1
01/18/2022 07:00 6.30 38.5 23.50 0.00 23.4
01/18/2022 06:00 6.30 38.5 23.47 0.00 24.6
01/18/2022 05:00 6.30 38.5 23.44 0.00 22.6
01/18/2022 04:00 6.30 38.5 23.40 0.00 21.2
01/18/2022 03:00 6.30 38.5 23.38 0.00 20.6
01/18/2022 02:00 6.30 38.5 23.35 0.00 21.4
01/18/2022 01:00 6.30 38.5 23.35 0.00 22.5
01/18/2022 00:00 6.30 38.5 23.32 0.00 23.4
01/17/2022 23:00 6.30 38.5 23.31 0.00 24.5
01/17/2022 22:00 6.30 38.5 23.28 0.00 26.2
01/17/2022 21:00 6.30 38.5 23.26 0.00 28.1
01/17/2022 20:00 6.30 38.5 23.23 0.00 29.0
01/17/2022 19:00 6.30 38.5 23.22 0.00 29.6
01/17/2022 18:00 6.30 38.5 23.20 0.00 30.6
01/17/2022 17:00 6.30 38.5 23.19 0.00 31.7
01/17/2022 16:00 6.30 38.5 23.17 0.00 33.7
01/17/2022 15:00 6.30 38.5 23.14 0.00 35.5
01/17/2022 14:00 6.30 38.5 23.13 0.00 35.7
01/17/2022 13:00 6.30 38.5 23.11 0.00 36.5
01/17/2022 12:00 6.30 38.5 23.10 0.00 36.7
01/17/2022 11:00 6.30 38.5 23.09 0.00 37.6
01/17/2022 10:00 6.30 38.5 23.08 0.00 38.8
01/17/2022 09:00 6.30 38.5 23.07 0.00 39.7
01/17/2022 08:00 6.30 38.5 23.05 0.00 39.2
01/17/2022 07:00 6.30 38.5 23.04 0.08 36.6
01/17/2022 06:00 6.30 38.5 23.02 0.16 36.0
01/17/2022 05:00 6.30 38.5 23.02 0.29 33.5
01/17/2022 04:00 6.30 38.5 23.00 0.16 33.2
01/17/2022 03:00 6.30 38.5 23.05 0.09 33.2
01/17/2022 02:00 6.30 38.5 22.97 0.07 30.7
01/17/2022 01:00 6.30 38.5 22.99 0.06 29.2
01/17/2022 00:00 6.30 38.5 22.98 0.03 28.4
01/16/2022 23:00 6.30 38.5 22.93 0.04 26.9
01/16/2022 22:00 6.30 38.5 22.93 0.01 26.1
01/16/2022 21:00 6.30 38.5 22.92 0.00 27.1
01/16/2022 20:00 6.30 38.5 22.92 0.00 27.5
01/16/2022 19:00 6.30 38.5 22.91 0.00 23.5
01/16/2022 18:00 6.30 38.5 22.91 0.00 19.7
01/16/2022 17:00 6.30 38.5 22.91 0.00 18.2
01/16/2022 16:00 6.30 38.5 22.91 0.00 18.8
01/16/2022 15:00 6.30 38.5 22.91 0.00 17.5
01/16/2022 14:00 6.30 38.5 22.91 0.00 15.6
01/16/2022 13:00 6.30 38.5 22.90 0.00 14.8
01/16/2022 12:00 6.30 38.5 22.90 0.00 18.5
01/16/2022 11:00 6.30 38.5 22.90 0.00 22.0
01/16/2022 10:00 6.30 38.5 22.90 0.00 25.5
01/16/2022 09:00 6.30 38.5 22.91 0.00 26.5
01/16/2022 08:00 6.30 38.5 22.91 0.00 22.0
01/16/2022 07:00 6.30 38.5 22.91 0.00 17.5
01/16/2022 06:00 6.30 38.5 22.92 0.00 12.0
01/16/2022 05:00 6.30 38.5 22.93 0.00 5.9
01/16/2022 04:00 6.30 38.5 22.94 0.00 1.6
01/16/2022 03:00 6.30 38.5 22.95 0.00 1.6
01/16/2022 02:00 6.30 38.5 22.96 0.00 1.6
01/16/2022 01:00 6.30 38.5 22.96 0.00 1.6
01/16/2022 00:00 6.30 38.5 22.97 0.00 1.7
01/15/2022 23:00 6.30 38.5 22.97 0.00 1.7
01/15/2022 22:00 6.30 38.5 22.97 0.00 1.7
01/15/2022 21:00 6.30 38.5 22.98 0.00 1.7
01/15/2022 20:00 6.30 38.5 22.98 0.00 1.7
01/15/2022 19:00 6.30 38.5 22.99 0.00 1.7
01/15/2022 18:00 6.30 38.5 22.99 0.00 1.7
01/15/2022 17:00 6.30 38.5 22.99 0.00 1.8
01/15/2022 16:00 6.30 38.5 22.99 0.00 1.8
01/15/2022 15:00 6.30 38.5 22.99 0.00 1.8
01/15/2022 14:00 -- -- 22.99 0.00 1.8
01/15/2022 13:00 6.30 38.5 22.99 0.00 1.8
01/15/2022 12:00 6.30 38.5 22.99 0.00 4.5
01/15/2022 11:00 6.30 38.5 22.99 0.00 6.2
01/15/2022 10:00 6.30 38.5 23.00 0.00 7.6
01/15/2022 09:00 6.30 38.5 22.99 0.00 8.6
01/15/2022 08:00 6.30 38.5 23.01 0.00 10.1
01/15/2022 07:00 6.30 38.5 23.00 0.00 7.2
01/15/2022 06:00 6.30 38.5 23.02 0.00 3.9
01/15/2022 05:00 6.30 38.5 23.01 0.00 1.4
01/15/2022 04:00 6.30 38.5 23.02 0.00 1.2
01/15/2022 03:00 6.30 38.5 23.02 0.00 1.1
01/15/2022 02:00 6.30 38.5 23.04 0.00 0.9
01/15/2022 01:00 6.30 38.5 23.04 0.00 0.7
01/15/2022 00:00 -- -- 23.04 0.00 0.6
01/14/2022 23:00 6.30 38.5 23.05 0.00 0.4
01/14/2022 22:00 6.30 38.5 23.02 0.00 0.9
01/14/2022 21:00 6.30 38.5 23.04 0.00 2.6
01/14/2022 20:00 6.30 38.5 23.02 0.00 3.9
01/14/2022 19:00 6.30 38.5 23.02 0.00 4.6
01/14/2022 18:00 6.30 38.5 23.02 0.00 6.3
01/14/2022 17:00 6.30 38.5 23.00 0.00 8.7
01/14/2022 16:00 6.30 38.5 22.99 0.00 12.3
01/14/2022 15:00 6.30 38.5 22.98 0.00 15.6
01/14/2022 14:00 6.30 38.5 22.95 0.00 18.5
01/14/2022 13:00 6.31 39.5 22.93 0.00 20.6
01/14/2022 12:00 6.30 38.5 22.92 0.00 24.6
01/14/2022 11:00 6.39 47.3 22.91 0.00 28.4
01/14/2022 10:00 6.39 47.3 22.87 0.00 32.5
01/14/2022 09:00 6.39 47.3 22.86 0.00 34.7
01/14/2022 08:00 6.39 47.3 22.86 0.00 36.1
01/14/2022 07:00 6.38 46.2 22.85 0.00 35.6
01/14/2022 06:00 6.39 47.3 22.83 0.00 35.3
01/14/2022 05:00 6.39 47.3 22.81 0.00 34.9
01/14/2022 04:00 6.39 47.3 22.81 0.00 28.3
01/14/2022 03:00 6.38 46.2 22.80 0.00 25.0
01/14/2022 02:00 6.45 53.7 22.79 0.00 24.4
01/14/2022 01:00 6.46 54.8 22.79 0.00 24.6
01/14/2022 00:00 6.45 53.7 22.79 0.00 27.5
01/13/2022 23:00 6.45 53.7 22.79 0.00 25.2
01/13/2022 22:00 6.45 53.7 22.78 0.00 25.5
01/13/2022 21:00 6.45 53.7 22.78 0.00 26.2
01/13/2022 20:00 6.45 53.7 22.77 0.00 27.8
01/13/2022 19:00 6.45 53.7 22.77 0.00 26.9
01/13/2022 18:00 6.45 53.7 22.76 0.00 26.8
01/13/2022 17:00 6.45 53.7 22.76 0.00 29.6
01/13/2022 16:00 6.45 53.7 22.75 0.00 28.5
01/13/2022 15:00 6.45 53.7 22.74 0.00 29.5
01/13/2022 14:00 6.45 53.7 22.73 0.00 32.8
01/13/2022 13:00 6.45 53.7 22.73 0.00 34.1
01/13/2022 12:00 6.45 53.7 22.72 0.00 32.5
01/13/2022 11:00 6.45 53.7 22.71 0.00 35.8
01/13/2022 10:00 6.45 53.7 22.70 0.00 39.8
01/13/2022 09:00 6.45 53.7 22.69 0.00 43.3
01/13/2022 08:00 6.45 53.7 22.68 0.00 35.2
01/13/2022 07:00 6.45 53.7 22.68 0.00 33.2
01/13/2022 06:00 6.45 53.7 22.67 0.00 32.4
01/13/2022 05:00 6.45 53.7 22.67 0.00 32.6
01/13/2022 04:00 6.45 53.7 22.66 0.00 30.8
01/13/2022 03:00 6.45 53.7 22.66 0.00 28.5
01/13/2022 02:00 6.30 38.5 22.64 0.00 27.8
01/13/2022 01:00 6.30 38.5 22.62 0.00 27.6
01/13/2022 00:00 6.30 38.5 22.60 0.00 27.5
01/12/2022 23:00 6.30 38.5 22.58 0.00 26.4
01/12/2022 22:00 6.30 38.5 22.56 0.00 27.9
01/12/2022 21:00 6.30 38.5 22.54 0.00 24.5
01/12/2022 20:00 6.30 38.5 22.52 0.00 27.9
01/12/2022 19:00 6.30 38.5 22.50 0.00 28.2
01/12/2022 18:00 6.30 38.5 22.47 0.00 28.1
01/12/2022 17:00 6.30 38.5 22.45 0.00 28.4
01/12/2022 16:00 6.30 38.5 22.43 0.00 28.0
01/12/2022 15:00 6.30 38.5 22.40 0.00 27.6
01/12/2022 14:00 6.30 38.5 22.38 0.00 27.7
01/12/2022 13:00 6.30 38.5 22.36 0.00 28.7
01/12/2022 12:00 6.30 38.5 22.34 0.00 28.9
01/12/2022 11:00 6.30 38.5 22.32 0.00 30.0
01/12/2022 10:00 6.29 37.6 22.30 0.00 30.1
01/12/2022 09:00 6.29 37.6 22.28 0.00 29.1
01/12/2022 08:00 6.30 38.5 22.26 0.00 28.6
01/12/2022 07:00 6.29 37.6 22.24 0.00 28.6
01/12/2022 06:00 6.29 37.6 22.23 0.00 26.0
01/12/2022 05:00 6.29 37.6 22.23 0.00 21.3
01/12/2022 04:00 6.29 37.6 22.21 0.00 16.9
01/12/2022 03:00 6.29 37.6 22.21 0.00 11.9
01/12/2022 02:00 6.29 37.6 22.20 0.00 9.5
01/12/2022 01:00 6.30 38.5 22.19 0.00 6.7
01/12/2022 00:00 6.30 38.5 22.19 0.00 5.1
01/11/2022 23:00 6.30 38.5 22.20 0.00 3.9
01/11/2022 22:00 6.29 37.6 22.19 0.00 2.1
01/11/2022 21:00 6.30 38.5 22.18 0.00 0.8
01/11/2022 20:00 6.29 37.6 22.18 0.00 0.3
01/11/2022 19:00 6.29 37.6 22.17 0.00 0.4
01/11/2022 18:00 6.29 37.6 22.17 0.00 0.3
01/11/2022 17:00 6.29 37.6 22.17 0.00 0.3
01/11/2022 16:00 6.30 38.5 22.16 0.00 0.3
01/11/2022 15:00 6.30 38.5 22.15 0.00 0.2
01/11/2022 14:00 6.29 37.6 22.14 0.00 0.1
01/11/2022 13:00 6.29 37.6 22.13 0.00 3.1
01/11/2022 12:00 6.30 38.5 22.12 0.00 7.0
01/11/2022 11:00 6.30 38.5 22.10 0.00 8.3
01/11/2022 10:00 6.30 38.5 22.09 0.00 8.7
01/11/2022 09:00 6.30 38.5 22.08 0.00 10.3
01/11/2022 08:00 6.30 38.5 22.07 0.00 9.1
01/11/2022 07:00 6.30 38.5 22.07 0.00 7.6
01/11/2022 06:00 6.30 38.5 22.06 0.00 6.3
01/11/2022 05:00 6.29 37.6 22.03 0.00 4.4
01/11/2022 04:00 6.29 37.6 22.02 0.00 0.3
01/11/2022 03:00 6.29 37.6 22.00 0.00 1.8
01/11/2022 02:00 6.29 37.6 21.99 0.00 2.7
01/11/2022 01:00 6.29 37.6 21.97 0.00 4.3
01/11/2022 00:00 6.29 37.6 21.95 0.00 6.9
01/10/2022 23:00 6.29 37.6 21.93 0.00 8.3
01/10/2022 22:00 6.29 37.6 21.90 0.00 10.5
01/10/2022 21:00 6.29 37.6 21.88 0.02 12.9
01/10/2022 20:00 6.29 37.6 21.85 0.01 16.0
01/10/2022 19:00 6.29 37.6 21.83 0.02 16.3
01/10/2022 18:00 6.29 37.6 21.79 0.00 15.2
01/10/2022 17:00 6.29 37.6 21.77 0.00 13.8
01/10/2022 16:00 6.29 37.6 21.74 0.00 16.4
01/10/2022 15:00 6.29 37.6 21.72 0.00 18.4
01/10/2022 14:00 6.29 37.6 21.69 0.00 18.8
01/10/2022 13:00 6.29 37.6 21.66 0.00 20.9
01/10/2022 12:00 6.29 37.6 21.63 0.00 21.5
01/10/2022 11:00 6.29 37.6 21.59 0.00 21.0
01/10/2022 10:00 6.45 53.7 21.56 0.00 22.7
01/10/2022 09:00 6.45 53.7 21.57 0.00 25.0
01/10/2022 08:00 6.45 53.7 21.53 0.00 25.0
01/10/2022 07:00 6.45 53.7 21.52 0.00 24.2
01/10/2022 06:00 6.44 52.6 21.50 0.00 24.2
01/10/2022 05:00 6.44 52.6 21.49 0.00 23.1
01/10/2022 04:00 6.63 76.1 21.48 0.00 21.9
01/10/2022 03:00 6.63 76.1 21.50 0.00 21.1
01/10/2022 02:00 6.63 76.1 21.52 0.00 21.8
01/10/2022 01:00 6.63 76.1 21.52 0.00 24.5
01/10/2022 00:00 6.63 76.1 21.54 0.00 26.4
01/09/2022 23:00 6.63 76.1 21.51 0.00 27.2
01/09/2022 22:00 6.63 76.1 21.54 0.00 29.2
01/09/2022 21:00 6.63 76.1 21.56 0.00 31.7
01/09/2022 20:00 6.63 76.1 21.56 0.00 33.3
01/09/2022 19:00 6.63 76.1 21.55 0.00 34.7
01/09/2022 18:00 6.63 76.1 21.56 0.00 35.4
01/09/2022 17:00 6.63 76.1 21.56 0.00 34.2
01/09/2022 16:00 6.63 76.1 21.56 0.00 34.7
01/09/2022 15:00 6.63 76.1 21.56 0.00 35.0
01/09/2022 14:00 6.63 76.1 21.56 0.00 34.3
01/09/2022 13:00 6.64 77.5 21.56 0.00 33.5
01/09/2022 12:00 6.63 76.1 21.56 0.00 33.5
01/09/2022 11:00 6.63 76.1 21.56 0.00 33.3
01/09/2022 10:00 6.63 76.1 21.56 0.00 32.9
01/09/2022 09:00 6.63 76.1 21.56 0.00 32.5
01/09/2022 08:00 6.63 76.1 21.56 0.02 32.2
01/09/2022 07:00 6.63 76.1 21.55 0.05 31.6
01/09/2022 06:00 6.63 76.1 21.56 0.01 30.1
01/09/2022 05:00 6.63 76.1 21.56 0.00 29.7
01/09/2022 04:00 6.63 76.1 21.56 0.01 28.7
01/09/2022 03:00 6.63 76.1 21.58 0.00 27.9
01/09/2022 02:00 -- -- 21.59 0.00 27.7
01/09/2022 01:00 6.63 76.1 21.60 0.00 27.1
01/09/2022 00:00 6.63 76.1 21.61 0.00 22.6
01/08/2022 23:00 6.63 76.1 21.63 0.00 21.9
01/08/2022 22:00 6.63 76.1 21.64 0.00 20.4